Location: Bucquoy
(50.1391°N, 2.7097°E)
Time: 23:46:46
(UTC+00:00)

Cosmos 2084 Rocket - Pass Details

Date: 06 May 2021
Orbit: 521 x 659 km, 62.8° (Epoch: 21 June)

Event Time Altitude Azimuth Distance (km) Brightness Sun altitude
Rises 00:22:04 0° 314° (NW) 2,773 7.4 -22.8°
Reaches altitude 10° 00:24:17 10° 311° (NW) 1,895 6.4 -22.8°
Enters shadow 00:28:06 60° 262° (W) 682 3.6 -22.7°
